| time (UTC) | temp C | wind direction | speed KPH | gust KPH | rain 1hr cm | rain 24hr cm | rain mn cm | humidity % | barometer mb |
| 20260506223512 | 11 | 0 | 0.0 | 0.0 | 0.00 | 0.00 | 0.00 | 86 | 1008.7 |
| 20260506220511 | 11 | 0 | 0.0 | 0.0 | 0.00 | 0.00 | 0.00 | 85 | 1008.5 |
| 20260506213511 | 11 | 0 | 0.0 | 0.0 | 0.00 | 0.41 | 0.41 | 84 | 1008.5 |
| 20260506210511 | 11 | 0 | 0.0 | 0.0 | 0.00 | 0.41 | 0.41 | 84 | 1008.2 |
| 20260506205011 | 12 | 0 | 0.0 | 0.0 | 0.00 | 0.41 | 0.41 | 84 | 1008.0 |
| 20260506203511 | 12 | 0 | 0.0 | 0.0 | 0.00 | 0.41 | 0.41 | 83 | 1007.9 |
| 20260506155014 | 18 | 0 | 0.0 | 0.0 | 0.00 | 0.41 | 0.41 | 63 | 1004.7 |
| 20260506153511 | 19 | 0 | 0.0 | 0.0 | 0.00 | 0.41 | 0.41 | 61 | 1004.7 |
| 20260506152011 | 19 | 0 | 0.0 | 0.0 | 0.00 | 0.41 | 0.41 | 61 | 1004.6 |
| 20260506150511 | 19 | 0 | 0.0 | 0.0 | 0.00 | 0.41 | 0.41 | 62 | 1004.5 |
| 20260506145010 | 19 | 0 | 0.0 | 0.0 | 0.00 | 0.41 | 0.41 | 61 | 1004.5 |
| 20260506142013 | 20 | 0 | 0.0 | 0.0 | 0.00 | 0.41 | 0.41 | 60 | 1004.4 |
| 20260506140510 | 20 | 0 | 0.0 | 0.0 | 0.00 | 0.41 | 0.41 | 60 | 1004.4 |
| 20260506135013 | 20 | 0 | 0.0 | 0.0 | 0.00 | 0.41 | 0.41 | 61 | 1004.4 |
| 20260506133510 | 20 | 0 | 0.0 | 0.0 | 0.00 | 0.41 | 0.41 | 60 | 1004.5 |
| 20260506132010 | 20 | 0 | 0.0 | 0.0 | 0.00 | 0.41 | 0.41 | 61 | 1004.4 |
| 20260506130510 | 19 | 0 | 0.0 | 0.0 | 0.00 | 0.41 | 0.41 | 61 | 1004.6 |
| 20260506125010 | 19 | 0 | 0.0 | 0.0 | 0.00 | 0.41 | 0.41 | 60 | 1004.6 |
| 20260506123509 | 20 | 0 | 0.0 | 0.0 | 0.00 | 0.41 | 0.41 | 57 | 1004.6 |
| 20260506122009 | 20 | 0 | 0.0 | 0.0 | 0.00 | 0.41 | 0.41 | 58 | 1004.6 |
| 20260506120514 | 19 | 0 | 0.0 | 0.0 | 0.00 | 0.41 | 0.41 | 60 | 1004.6 |
| 20260506115014 | 19 | 0 | 0.0 | 0.0 | 0.00 | 0.41 | 0.41 | 61 | 1004.8 |
| 20260506113517 | 18 | 0 | 0.0 | 0.0 | 0.00 | 0.41 | 0.41 | 66 | 1004.8 |
| 20260506112017 | 18 | 0 | 0.0 | 0.0 | 0.00 | 0.41 | 0.41 | 65 | 1004.9 |
| 20260506110517 | 18 | 0 | 0.0 | 0.0 | 0.00 | 0.41 | 0.41 | 67 | 1004.9 |
| 20260506100513 | 17 | 0 | 0.0 | 0.0 | 0.03 | 0.41 | 0.41 | 72 | 1005.2 |
| 20260506095013 | 17 | 0 | 0.0 | 0.0 | 0.00 | 0.38 | 0.38 | 71 | 1005.3 |
| 20260506093513 | 18 | 0 | 0.0 | 0.0 | 0.00 | 0.38 | 0.38 | 71 | 1005.2 |
| 20260506090513 | 17 | 0 | 0.0 | 0.0 | 0.00 | 0.38 | 0.38 | 72 | 1005.0 |
| 20260506085013 | 17 | 0 | 0.0 | 0.0 | 0.00 | 0.38 | 0.38 | 74 | 1004.8 |
| 20260506082027 | 16 | 0 | 0.0 | 0.0 | 0.03 | 0.38 | 0.38 | 81 | 1004.8 |
| 20260506080512 | 16 | 0 | 0.0 | 0.0 | 0.03 | 0.38 | 0.38 | 84 | 1004.8 |
| 20260506072012 | 15 | 0 | 0.0 | 0.0 | 0.03 | 0.36 | 0.36 | 94 | 1004.8 |
| 20260506070512 | 14 | 0 | 0.0 | 0.0 | 0.03 | 0.36 | 0.36 | 96 | 1004.7 |
| 20260506062012 | 13 | 0 | 0.0 | 0.0 | 0.00 | 0.33 | 0.33 | 96 | 1004.8 |
| 20260506060511 | 12 | 0 | 0.0 | 0.0 | 0.03 | 0.33 | 0.33 | 96 | 1004.7 |
| 20260506050511 | 12 | 0 | 0.0 | 0.0 | 0.03 | 0.33 | 0.33 | 96 | 1004.8 |
| 20260506045011 | 12 | 0 | 0.0 | 0.0 | 0.03 | 0.33 | 0.33 | 96 | 1004.7 |
| 20260506043514 | 12 | 0 | 0.0 | 0.0 | 0.03 | 0.33 | 0.33 | 96 | 1004.7 |
| 20260506035010 | 12 | 0 | 0.0 | 0.0 | 0.03 | 0.30 | 0.30 | 96 | 1004.9 |
| 20260506033513 | 12 | 0 | 0.0 | 0.0 | 0.05 | 0.30 | 0.30 | 95 | 1005.0 |
| 20260506032013 | 12 | 0 | 0.0 | 0.0 | 0.03 | 0.28 | 0.28 | 95 | 1004.9 |
| 20260506030510 | 12 | 0 | 0.0 | 0.0 | 0.03 | 0.28 | 0.28 | 95 | 1005.0 |
| 20260506025013 | 12 | 0 | 0.0 | 0.0 | 0.05 | 0.28 | 0.28 | 95 | 1005.1 |
| 20260506022010 | 12 | 0 | 0.0 | 0.0 | 0.03 | 0.25 | 0.25 | 95 | 1005.1 |
| 20260506015009 | 12 | 0 | 0.0 | 0.0 | 0.05 | 0.23 | 0.23 | 95 | 1005.1 |
| 20260506013510 | 12 | 0 | 0.0 | 0.0 | 0.05 | 0.23 | 0.23 | 94 | 1005.3 |
| 20260506010512 | 12 | 0 | 0.0 | 0.0 | 0.05 | 0.23 | 0.23 | 94 | 1005.3 |
| 20260506005014 | 12 | 0 | 0.0 | 0.0 | 0.05 | 0.20 | 0.20 | 95 | 1005.5 |
| 20260506003517 | 13 | 0 | 0.0 | 0.0 | 0.05 | 0.20 | 0.20 | 94 | 1005.5 |
| 20260506002014 | 13 | 0 | 0.0 | 0.0 | 0.05 | 0.18 | 0.18 | 94 | 1005.7 |
| 20260506000514 | 13 | 0 | 0.0 | 0.0 | 0.08 | 0.18 | 0.18 | 94 | 1005.7 |
| 20260505233514 | 13 | 0 | 0.0 | 0.0 | 0.08 | 0.15 | 0.15 | 94 | 1005.8 |
| 20260505232013 | 13 | 0 | 0.0 | 0.0 | 0.08 | 0.13 | 0.13 | 94 | 1005.9 |
| 20260505230514 | 13 | 0 | 0.0 | 0.0 | 0.08 | 0.10 | 0.10 | 94 | 1006.0 |
| 20260505225013 | 14 | 0 | 0.0 | 0.0 | 0.08 | 0.08 | 0.08 | 94 | 1006.1 |